Hourly Data Report for July 13, 2021

RANKIN INLET A
NUNAVUT
Current Station Operator: NAVCAN

62°48'38.000" N
92°06'53.000" W
32.30 m
2303405
71083
YRT

Download Data

Hourly Data (July 2021)
Hourly Data Report for July 13, 2021
TIME
LST
Temp Definition
°C
Dew Point Definition
°C
Rel Hum Definition
%
Precip. Amount Definition
mm

Wind Dir Definition
10's deg

Wind Spd Definition
km/h
Visibility Definition
km
Stn Press Definition
kPa
Hmdx Definition


Wind Chill Definition


Weather Definition


00:00 11.6 8.0 79   33 27 24.1 100.15     Mostly Cloudy
01:00 10.9 7.8 81   32 26 24.1 100.17     LegendNANA
02:00 11.2 8.4 83   32 27 24.1 100.22     LegendNANA
03:00 10.2 8.2 87   32 28 24.1 100.25     Mainly Clear
04:00 9.7 6.7 81   34 36 24.1 100.28     LegendNANA
05:00 10.1 6.4 78   34 35 24.1 100.35     LegendNANA
06:00 9.8 4.6 70   34 45 24.1 100.37     Mainly Clear
07:00 9.8 4.4 69   34 44 24.1 100.43     LegendNANA
08:00 10.3 4.0 65   33 40 24.1 100.46     LegendNANA
09:00 11.1 3.5 60   33 37 24.1 100.52     Mainly Clear
10:00 11.2 2.9 56   35 42 24.1 100.53     LegendNANA
11:00 11.7 4.0 59   34 31 24.1 100.56     LegendNANA
12:00 12.5 3.6 54   33 35 24.1 100.58     Mainly Clear
13:00 13.2 3.6 52   32 32 48.3 100.61     LegendNANA
14:00 13.8 3.8 51   32 34 48.3 100.64     LegendNANA
15:00 13.9 4.4 53   33 28 48.3 100.64     Mostly Cloudy
16:00 13.6 5.0 56   31 25 48.3 100.66     LegendNANA
17:00 13.3 4.5 55   33 22 24.1 100.66     LegendNANA
18:00 13.6 5.0 56   30 22 24.1 100.66     Mostly Cloudy
19:00 13.1 5.1 58   32 22 24.1 100.67     LegendNANA
20:00 12.2 5.2 62   32 13 24.1 100.67     LegendNANA
21:00 11.7 5.7 67   30 8 24.1 100.67     Mostly Cloudy
22:00 11.3 6.2 70   26 9 24.1 100.65     LegendNANA
23:00 11.2 6.5 73   23 9 24.1 100.64     LegendNANA

Notes on Data Quality.

Legend

  • E = Estimated
  • M = Missing
  • NA = Not Available*
  • [empty] = Indicates an unobserved value
Date modified: